Location: Corona
(40.7470°N, 73.8601°W)
Time: 02:58:13
(UTC+00:00)

Cosmos 1544 - Pass Details

Date: 22 September 2019
Orbit: 475 x 491 km, 82.5° (Epoch: 19 October)

Event Time Altitude Azimuth Distance (km) Brightness Sun altitude
Rises 23:49:10 0° 200° (SSW) 2,511 6.8 -11.4°
Reaches altitude 10° 23:51:18 10° 207° (SSW) 1,640 6.0 -11.8°
Maximum altitude 23:54:45 44° 281° (W) 667 4.3 -12.5°
Drops below altitude 10° 23:58:14 10° 355° (N) 1,659 6.0 -13.1°
Sets 00:00:24 0° 2° (N) 2,546 6.9 -13.5°
